User: anonymous   Login
Location: Baix
(44.7118°N, 4.7648°E)
Time: 01:48:41
(UTC+00:00)
Language:

Cosmos 1707 - Orbit

View from above orbital plane
View from above orbital plane
View from above satellite
View from above satellite

Ground track
Ground track

The orbit data is extracted from the following two-line orbital elements,

1 16326U 85113A   20302.42839415 +.00000333 +00000-0 +16407-4 0  9990
2 16326 082.5099 079.6415 0010853 021.2446 338.9234 15.14374989903040
Epoch (UTC): 28 October 2020 10:16:53
Eccentricity: 0.0010853
inclination: 82.5099°
perigee height: 515 km
apogee height: 530 km
right ascension of ascending node: 79.6415°
argument of perigee: 21.2446°
revolutions per day: 15.14374989
mean anomaly at epoch: 338.9234°
orbit number at epoch: 90304

The dashed part of the orbit path shows where the satellite is in the earth's shadow,  

DLR